Wind_Speed
27 23 21 19 17 15 13 12 11 11 12 10 10 8 8 7 5 6 6 6 6 8
30 28 22 19 18 15 14 11 13 11 12 10 11 10 10 8 9 8 8 9 9 10
31 29 25 22 23 20 15 13 13 12 12 11 10 12 12 11 11 11 9 9 10 11
30 27 26 24 24 19 19 14 14 13 13 13 13 13 15 14 12 12 11 11 12 11
30 27 27 26 27 21 22 16 12 8 16 17 16 15 17 16 13 12 13 12 12 10
32 32 29 31 32 27 25 21 21 31 29 22 23 21 20 18 16 14 13 13 13 13
30 28 34 35 36 36 35 32 36 39 33 33 26 23 22 18 17 16 15 15 15 15
24 29 36 39 40 42 44 48 46 44 39 34 29 27 24 20 19 18 18 16 16 16
27 31 35 37 38 45 53 54 51 49 41 34 29 26 26 24 19 18 17 16 17 18
31 30 29 27 32 40 52 53 49 49 38 30 36 28 25 23 23 19 18 19 20 22
25 23 21 23 25 30 41 50 47 41 36 26 30 31 30 26 25 25 23 23 23 25
20 21 21 21 22 26 33 35 30 30 25 24 27 29 28 28 25 25 29 26 29 36
18 19 18 18 19 20 26 28 27 28 25 24 24 23 24 27 27 30 26 28 30 29
18 20 18 19 17 19 20 20 23 23 24 27 24 25 22 23 27 27 26 26 19 15
Wind_Direction
226 223 226 228 222 227 224 229 229 242 252 241 228 229 228 217 222 247 261 257 266 261
230 225 220 218 225 225 226 224 220 239 253 240 233 232 226 216 235 237 248 252 258 268
228 230 222 216 216 214 224 231 230 237 248 236 239 246 237 235 245 236 239 248 246 256
224 220 224 217 229 232 228 239 241 259 259 247 259 247 244 237 234 242 247 243 245 251
222 216 216 215 225 221 235 223 208 280 295 266 265 250 243 243 239 243 242 241 242 248
224 220 211 217 221 215 218 214 192 246 240 261 266 253 244 243 244 241 243 242 243 251
219 212 212 220 222 220 214 212 227 256 255 248 260 247 244 243 245 243 241 247 250 253
214 215 229 230 224 221 221 231 237 250 260 266 239 242 248 239 239 244 247 250 260 265
215 224 243 241 230 223 231 236 241 246 248 239 231 234 234 243 244 247 254 261 264 267
222 234 241 243 236 233 230 234 236 233 239 243 225 233 244 249 251 248 252 258 272 277
213 221 227 231 230 234 232 233 226 232 240 241 230 234 242 246 250 255 255 257 266 280
205 210 213 220 226 223 224 224 222 231 245 240 229 236 247 251 245 247 255 266 282 286
198 204 208 212 217 226 222 218 222 236 247 226 228 244 245 244 237 249 263 279 282 284
189 192 194 199 198 215 216 216 224 242 230 225 230 241 242 244 242 246 276 282 278 271
Height
1536 1542 1546 1549 1552 1554 1556 1557 1559 1560 1561 1562 1562 1561 1560 1562 1564 1566 1567 1566 1567 1568
1530 1534 1542 1546 1548 1551 1553 1556 1556 1556 1560 1561 1561 1560 1560 1561 1561 1561 1562 1563 1563 1565
1524 1530 1536 1540 1541 1544 1549 1553 1555 1555 1555 1555 1558 1560 1559 1560 1559 1558 1558 1559 1560 1560
1519 1525 1529 1534 1539 1545 1543 1545 1552 1555 1554 1554 1552 1554 1557 1556 1556 1556 1556 1556 1555 1555
1514 1519 1522 1527 1532 1537 1543 1539 1541 1550 1554 1553 1550 1550 1553 1553 1553 1551 1551 1551 1552 1552
1507 1510 1515 1519 1523 1527 1532 1532 1529 1524 1531 1540 1542 1544 1547 1547 1548 1546 1547 1548 1548 1549
1498 1503 1505 1510 1516 1520 1520 1520 1517 1517 1523 1531 1536 1540 1542 1542 1543 1543 1543 1544 1543 1543
1493 1494 1496 1499 1504 1509 1511 1509 1510 1511 1515 1522 1526 1530 1536 1536 1537 1537 1537 1538 1539 1539
1485 1485 1486 1489 1494 1497 1496 1499 1503 1507 1509 1515 1519 1522 1527 1531 1532 1533 1533 1534 1535 1534
1473 1476 1478 1482 1486 1488 1490 1492 1496 1499 1505 1507 1512 1517 1521 1524 1526 1526 1526 1526 1527 1527
1467 1470 1472 1475 1479 1482 1488 1490 1493 1496 1500 1503 1507 1509 1513 1517 1520 1522 1521 1519 1520 1519
1461 1465 1468 1470 1472 1475 1478 1485 1490 1492 1495 1498 1500 1502 1506 1510 1513 1514 1514 1514 1513 1513
1455 1458 1461 1465 1469 1474 1478 1476 1483 1487 1488 1490 1494 1497 1500 1503 1506 1506 1509 1507 1504 1503
1449 1453 1455 1460 1461 1474 1478 1478 1480 1482 1485 1485 1490 1492 1493 1496 1498 1499 1500 1499 1497 1496